�N����,�����b,�ŏ������i�x�j,���ϕ����i�x�j,�ő啗���i�x�j,�ŏ�����(m/s),���ϕ���(m/s),�ő啗��(m/s),�C��(���j,���x�i���j,�C��(hPa),�~�J��(mm),�~�J����(�b�j,�~�J���x(mm/h),�ő�~�J���x(mm/h),�~�Ђ傤��(hit/���u),�~�Ђ傤����(�b�j,�~�Ђ傤���x(hit/���uh),�ő�~�Ђ傤���x(hit/���uh),�q�[�^���x(���j,�q�[�^�[�d���iV),�d���d���iV),�Q�Ɠd���iV)
2014/07/01,00:00:01,125,129,134,1.8,2.0,2.2,25.2,92.7,1004.5,0.00,0,0.0,////,0.0,0,0.0,////,24.1,0.0,12.3,3.513
2014/07/01,00:10:01,128,129,130,2.0,2.1,2.3,25.3,92.7,1004.4,0.00,0,0.0,////,0.0,0,0.0,////,24.1,0.0,12.3,3.513
2014/07/01,00:20:01,133,137,141,1.5,1.8,2.0,25.3,92.6,1004.4,0.00,0,0.0,////,0.0,0,0.0,////,24.1,0.0,12.3,3.514
2014/07/01,00:30:01,118,121,125,1.5,1.7,1.9,25.3,92.4,1004.3,0.00,0,0.0,////,0.0,0,0.0,////,24.3,0.0,12.3,3.513
2014/07/01,00:40:01,109,117,128,1.8,1.9,2.1,25.2,92.4,1004.3,0.00,0,0.0,////,0.0,0,0.0,////,24.1,0.0,12.3,3.513
2014/07/01,00:50:01,129,140,150,1.9,2.1,2.3,25.3,92.6,1004.3,0.00,0,0.0,////,0.0,0,0.0,////,24.1,0.0,12.3,3.511
2014/07/01,01:00:01,126,129,132,1.8,1.9,2.1,25.3,92.3,1004.2,0.00,0,0.0,////,0.0,0,0.0,////,24.3,0.0,12.3,3.513
2014/07/01,01:10:01,116,116,117,1.2,1.3,1.4,25.3,92.1,1004.0,0.00,0,0.0,////,0.0,0,0.0,////,24.3,0.0,12.3,3.513
2014/07/01,01:20:01,120,124,127,1.5,1.6,1.7,25.1,92.2,1004.0,0.00,0,0.0,////,0.0,0,0.0,////,23.9,0.0,12.3,3.511
2014/07/01,01:30:01,140,148,156,0.8,0.9,1.0,25.0,92.5,1004.1,0.00,0,0.0,////,0.0,0,0.0,////,23.7,0.0,12.3,3.511
2014/07/01,01:40:01,187,189,191,1.2,1.2,1.3,24.9,92.5,1003.9,0.00,0,0.0,////,0.0,0,0.0,////,23.7,0.0,12.3,3.513
2014/07/01,01:50:01,187,188,188,1.3,1.4,1.5,25.1,91.6,1004.0,0.00,0,0.0,////,0.0,0,0.0,////,24.1,0.0,12.3,3.513
2014/07/01,02:00:01,184,185,187,1.4,1.5,1.6,25.1,90.9,1003.8,0.00,0,0.0,////,0.0,0,0.0,////,24.1,0.0,12.3,3.513
2014/07/01,02:10:01,197,198,199,0.9,0.9,1.1,25.1,91.0,1003.7,0.00,0,0.0,////,0.0,0,0.0,////,23.9,0.0,12.3,3.514
2014/07/01,02:20:01,187,188,189,1.1,1.1,1.2,25.2,90.4,1003.7,0.00,0,0.0,////,0.0,0,0.0,////,24.1,0.0,12.3,3.514
2014/07/01,02:30:01,180,182,184,0.9,1.0,1.1,25.3,89.7,1003.6,0.00,0,0.0,////,0.0,0,0.0,////,24.1,0.0,12.3,3.513
2014/07/01,02:40:01,185,185,186,1.0,1.0,1.1,25.4,90.4,1003.6,0.00,0,0.0,////,0.0,0,0.0,////,24.1,0.0,12.3,3.511
2014/07/01,02:50:01,199,199,199,0.7,0.8,0.9,25.4,90.0,1003.6,0.00,0,0.0,////,0.0,0,0.0,////,23.9,0.0,12.3,3.513
2014/07/01,03:00:01,213,214,214,0.8,0.8,0.9,25.5,89.9,1003.6,0.00,0,0.0,////,0.0,0,0.0,////,24.1,0.0,12.3,3.513
2014/07/01,03:10:01,200,201,202,0.9,1.0,1.1,25.6,88.9,1003.4,0.00,0,0.0,////,0.0,0,0.0,////,24.3,0.0,12.3,3.513
2014/07/01,03:20:01,237,245,259,0.5,0.6,0.6,25.5,88.3,1003.4,0.00,0,0.0,////,0.0,0,0.0,////,24.3,0.0,12.3,3.513
2014/07/01,03:30:01,178,180,182,0.9,0.9,1.0,25.4,88.1,1003.3,0.00,0,0.0,////,0.0,0,0.0,////,24.1,0.0,12.3,3.511
2014/07/01,03:40:01,206,206,206,0.8,0.8,0.9,25.3,88.9,1003.3,0.00,0,0.0,////,0.0,0,0.0,////,23.9,0.0,12.3,3.513
2014/07/01,03:50:01,203,203,205,0.9,1.0,1.1,25.4,88.3,1003.3,0.00,0,0.0,////,0.0,0,0.0,////,24.3,0.0,12.3,3.513
2014/07/01,04:00:01,197,199,201,0.4,0.5,0.6,25.4,88.4,1003.3,0.00,0,0.0,////,0.0,0,0.0,////,23.9,0.0,12.3,3.513
2014/07/01,04:10:01,238,248,256,0.2,0.3,0.4,25.4,88.7,1003.4,0.00,0,0.0,////,0.0,0,0.0,////,24.1,0.0,12.3,3.514
2014/07/01,04:20:01,241,247,251,0.2,0.3,0.4,25.4,88.8,1003.4,0.00,0,0.0,////,0.0,0,0.0,////,23.9,0.0,12.3,3.514
2014/07/01,04:30:01,297,303,307,0.7,0.8,0.9,25.3,89.0,1003.5,0.00,0,0.0,////,0.0,0,0.0,////,23.9,0.0,12.2,3.513
2014/07/01,04:40:01,264,268,269,0.7,0.8,0.9,25.4,89.4,1003.5,0.00,0,0.0,////,0.0,0,0.0,////,23.9,0.0,12.3,3.511
2014/07/01,04:50:01,222,223,223,0.7,0.8,0.8,25.4,89.9,1003.5,0.00,0,0.0,////,0.0,0,0.0,////,23.9,0.0,12.3,3.511
2014/07/01,05:00:01,238,242,245,0.4,0.5,0.6,25.4,90.1,1003.6,0.00,0,0.0,////,0.0,0,0.0,////,23.9,0.0,12.3,3.513
2014/07/01,05:10:01,250,251,253,0.5,0.5,0.6,25.3,89.9,1003.7,0.00,0,0.0,////,0.0,0,0.0,////,23.9,0.0,12.3,3.513
2014/07/01,05:20:01,274,275,277,0.0,0.1,0.1,25.4,90.3,1003.9,0.00,0,0.0,////,0.0,0,0.0,////,24.1,0.0,12.3,3.513
2014/07/01,05:30:01,286,293,306,0.4,0.5,0.5,25.4,90.4,1004.0,0.00,0,0.0,////,0.0,0,0.0,////,23.9,0.0,12.3,3.513
2014/07/01,05:40:01,283,294,304,0.2,0.3,0.4,25.4,90.5,1004.0,0.00,0,0.0,////,0.0,0,0.0,////,23.9,0.0,12.3,3.513
2014/07/01,05:50:01,309,319,330,0.3,0.4,0.5,25.4,90.7,1004.1,0.00,0,0.0,////,0.0,0,0.0,////,24.1,0.0,12.3,3.513
2014/07/01,06:00:01,272,273,273,0.1,0.2,0.2,25.5,90.7,1004.1,0.00,0,0.0,////,0.0,0,0.0,////,24.3,0.0,12.3,3.513
2014/07/01,06:10:01,188,191,194,0.5,0.5,0.6,25.5,90.9,1004.3,0.00,0,0.0,////,0.0,0,0.0,////,24.3,0.0,12.3,3.513
2014/07/01,06:20:01,090,093,096,0.3,0.4,0.4,25.6,91.0,1004.3,0.00,0,0.0,////,0.0,0,0.0,////,24.6,0.0,12.3,3.513
2014/07/01,06:30:01,135,136,137,0.4,0.5,0.5,25.8,90.8,1004.3,0.00,0,0.0,////,0.0,0,0.0,////,25.5,0.0,12.3,3.513
2014/07/01,06:40:01,006,014,025,0.1,0.2,0.3,26.6,90.0,1004.4,0.00,0,0.0,////,0.0,0,0.0,////,27.5,0.0,12.3,3.511
2014/07/01,06:50:01,015,017,019,0.6,0.7,0.8,27.0,86.3,1004.4,0.00,0,0.0,////,0.0,0,0.0,////,28.9,0.0,12.3,3.513
2014/07/01,07:00:01,083,089,095,0.2,0.3,0.4,27.1,85.7,1004.6,0.00,0,0.0,////,0.0,0,0.0,////,29.6,0.0,12.3,3.511
2014/07/01,07:10:01,272,295,339,0.1,0.2,0.3,27.3,86.2,1004.8,0.00,0,0.0,////,0.0,0,0.0,////,29.4,0.0,12.3,3.511
2014/07/01,07:20:01,356,000,002,0.2,0.3,0.4,27.4,84.2,1004.9,0.00,0,0.0,////,0.0,0,0.0,////,30.5,0.0,12.3,3.511
2014/07/01,07:30:01,279,318,341,0.6,0.7,0.7,27.9,82.9,1005.0,0.00,0,0.0,////,0.0,0,0.0,////,31.8,0.0,12.3,3.513
2014/07/01,07:40:01,356,002,013,1.2,1.3,1.4,28.1,81.9,1004.9,0.00,0,0.0,////,0.0,0,0.0,////,32.4,0.0,12.3,3.513
2014/07/01,07:50:01,336,346,356,0.3,0.5,0.7,28.3,80.5,1005.0,0.00,0,0.0,////,0.0,0,0.0,////,32.5,0.0,12.3,3.513
2014/07/01,08:00:01,020,024,029,1.3,1.4,1.5,27.6,83.0,1005.0,0.00,0,0.0,////,0.0,0,0.0,////,30.3,0.0,12.3,3.513
2014/07/01,08:10:01,027,029,030,2.0,2.1,2.2,27.6,84.3,1005.1,0.00,0,0.0,////,0.0,0,0.0,////,30.1,0.0,12.3,3.513
2014/07/01,08:20:01,024,026,029,1.6,1.9,2.1,27.3,85.7,1005.1,0.00,0,0.0,////,0.0,0,0.0,////,29.6,0.0,12.3,3.513
2014/07/01,08:30:01,059,069,075,0.7,0.9,1.0,27.2,87.9,1005.1,0.00,0,0.0,////,0.0,0,0.0,////,28.9,0.0,12.3,3.513
2014/07/01,08:40:01,088,092,096,1.1,1.2,1.3,27.4,87.2,1005.2,0.00,0,0.0,////,0.0,0,0.0,////,29.1,0.0,12.3,3.511
2014/07/01,08:50:01,061,069,075,1.8,1.9,2.0,27.5,87.0,1005.2,0.00,0,0.0,////,0.0,0,0.0,////,29.3,0.0,12.3,3.511
2014/07/01,09:00:01,072,080,095,0.4,0.8,1.2,27.7,87.6,1005.2,0.00,0,0.0,////,0.0,0,0.0,////,29.8,0.0,12.3,3.511
2014/07/01,09:10:01,074,080,084,1.8,2.1,2.5,27.6,88.0,1005.2,0.00,0,0.0,////,0.0,0,0.0,////,29.6,0.0,12.3,3.513
2014/07/01,09:20:01,090,095,101,1.0,1.3,1.8,27.6,88.5,1005.2,0.00,0,0.0,////,0.0,0,0.0,////,29.4,0.0,12.3,3.513
2014/07/01,09:30:01,102,107,112,1.4,1.6,1.7,27.3,88.3,1005.2,0.00,0,0.0,////,0.0,0,0.0,////,28.4,0.0,12.3,3.510
2014/07/01,09:40:01,073,078,080,0.5,1.0,1.3,27.4,88.9,1005.2,0.00,0,0.0,////,0.0,0,0.0,////,28.9,0.0,12.3,3.513
2014/07/01,09:50:01,105,111,115,1.9,2.1,2.3,27.4,88.7,1005.1,0.00,0,0.0,////,0.0,0,0.0,////,29.4,0.0,12.2,3.513
2014/07/01,10:00:01,100,101,102,2.2,2.7,3.1,27.5,88.9,1005.2,0.00,0,0.0,////,0.0,0,0.0,////,29.3,0.0,12.3,3.511
2014/07/01,10:10:01,115,125,130,2.0,2.2,2.5,28.0,89.7,1005.2,0.00,0,0.0,////,0.0,0,0.0,////,30.5,0.0,12.3,3.513
2014/07/01,10:20:01,078,082,088,2.2,2.4,2.6,28.4,86.8,1005.0,0.00,0,0.0,////,0.0,0,0.0,////,32.0,0.0,12.3,3.511
2014/07/01,10:30:01,067,079,091,2.5,2.8,3.2,28.0,86.2,1005.0,0.00,0,0.0,////,0.0,0,0.0,////,31.7,0.0,12.3,3.511
2014/07/01,10:40:01,094,099,106,2.5,2.8,3.3,27.9,86.7,1005.0,0.00,0,0.0,////,0.0,0,0.0,////,31.2,0.0,12.3,3.513
2014/07/01,10:50:01,097,098,100,2.5,2.9,3.3,28.3,86.4,1005.1,0.00,0,0.0,////,0.0,0,0.0,////,32.2,0.0,12.3,3.511
2014/07/01,11:00:01,095,105,118,2.4,2.7,2.9,28.3,84.5,1005.2,0.00,0,0.0,////,0.0,0,0.0,////,32.4,0.0,12.3,3.511
2014/07/01,11:10:01,104,107,109,3.1,3.4,3.7,28.6,86.6,1005.3,0.00,0,0.0,////,0.0,0,0.0,////,32.4,0.0,12.3,3.513
2014/07/01,11:20:01,034,041,054,2.0,2.1,2.4,28.8,83.9,1005.5,0.00,0,0.0,////,0.0,0,0.0,////,33.6,0.0,12.3,3.511
2014/07/01,11:30:01,102,104,106,1.7,1.8,2.0,28.5,84.8,1005.3,0.00,0,0.0,////,0.0,0,0.0,////,32.4,0.0,12.3,3.513
2014/07/01,11:40:01,113,114,115,1.7,1.9,2.0,28.6,84.4,1005.4,0.00,0,0.0,////,0.0,0,0.0,////,32.9,0.0,12.3,3.511
2014/07/01,11:50:01,091,095,099,1.7,1.8,2.0,28.2,84.4,1005.3,0.00,0,0.0,////,0.0,0,0.0,////,32.0,0.0,12.3,3.513
2014/07/01,12:00:01,093,108,116,1.3,1.7,2.1,28.1,86.7,1005.2,0.00,0,0.0,////,0.0,0,0.0,////,30.8,0.0,12.3,3.511
2014/07/01,12:10:01,087,102,114,1.1,1.4,1.8,28.2,85.3,1005.1,0.00,0,0.0,////,0.0,0,0.0,////,31.2,0.0,12.3,3.514
2014/07/01,12:20:01,117,130,137,1.7,1.9,2.1,28.5,86.1,1005.1,0.00,0,0.0,////,0.0,0,0.0,////,31.5,0.0,12.3,3.513
2014/07/01,12:30:01,111,117,129,1.8,2.1,2.5,28.8,85.1,1005.0,0.00,0,0.0,////,0.0,0,0.0,////,32.5,0.0,12.3,3.510
2014/07/01,12:40:01,099,103,110,3.2,3.9,4.4,28.6,84.6,1004.8,0.00,0,0.0,////,0.0,0,0.0,////,32.2,0.0,12.3,3.511
2014/07/01,12:50:01,090,103,115,1.5,1.7,1.9,29.1,83.4,1004.7,0.00,0,0.0,////,0.0,0,0.0,////,32.9,0.0,12.3,3.511
2014/07/01,13:00:01,111,113,114,1.4,1.6,1.7,28.8,83.2,1004.8,0.00,0,0.0,////,0.0,0,0.0,////,33.2,0.0,12.3,3.510
2014/07/01,13:10:01,149,155,162,1.1,1.5,1.7,28.9,82.9,1004.9,0.00,0,0.0,////,0.0,0,0.0,////,32.9,0.0,12.3,3.511
2014/07/01,13:20:01,048,078,101,0.7,1.1,1.3,29.3,83.2,1004.6,0.00,0,0.0,////,0.0,0,0.0,////,33.6,0.0,12.3,3.511
2014/07/01,13:30:01,253,278,293,0.6,0.8,1.0,29.5,80.9,1004.7,0.00,0,0.0,////,0.0,0,0.0,////,34.3,0.0,12.3,3.509
2014/07/01,13:40:01,107,109,112,3.1,3.2,3.5,28.7,82.1,1004.6,0.00,0,0.0,////,0.0,0,0.0,////,33.1,0.0,12.3,3.511
2014/07/01,13:50:01,145,163,172,0.9,1.2,1.5,28.8,83.1,1004.6,0.00,0,0.0,////,0.0,0,0.0,////,31.8,0.0,12.3,3.511
2014/07/01,14:00:01,136,143,148,0.6,0.7,0.8,29.3,82.5,1004.5,0.00,0,0.0,////,0.0,0,0.0,////,32.9,0.0,12.3,3.510
2014/07/01,14:10:01,083,097,105,1.3,1.7,1.9,28.8,84.1,1004.4,0.00,0,0.0,////,0.0,0,0.0,////,32.4,0.0,12.3,3.511
2014/07/01,14:20:01,148,168,182,0.5,0.5,0.7,28.7,84.3,1004.3,0.00,0,0.0,////,0.0,0,0.0,////,31.5,0.0,12.3,3.513
2014/07/01,14:30:01,216,220,223,2.2,2.3,2.4,29.6,79.9,1004.4,0.00,0,0.0,////,0.0,0,0.0,////,32.5,0.0,12.3,3.513
2014/07/01,14:40:01,242,250,259,1.0,1.1,1.3,29.8,78.0,1004.2,0.00,0,0.0,////,0.0,0,0.0,////,32.2,0.0,12.3,3.511
2014/07/01,14:50:01,258,268,273,0.9,1.0,1.1,29.9,78.4,1004.2,0.00,0,0.0,////,0.0,0,0.0,////,31.8,0.0,12.3,3.511
2014/07/01,15:00:01,203,239,301,0.1,0.2,0.2,30.0,78.3,1004.1,0.00,0,0.0,////,0.0,0,0.0,////,31.8,0.0,12.3,3.511
2014/07/01,15:10:01,105,108,110,1.9,2.1,2.2,29.4,79.6,1004.0,0.00,0,0.0,////,0.0,0,0.0,////,31.8,0.0,12.3,3.511
2014/07/01,15:20:01,046,062,076,0.6,0.8,1.1,28.4,84.6,1004.1,0.00,0,0.0,////,0.0,0,0.0,////,30.3,0.0,12.3,3.511
2014/07/01,15:30:01,104,107,108,1.6,1.8,2.1,28.4,86.5,1004.0,0.00,0,0.0,////,0.0,0,0.0,////,29.4,0.0,12.3,3.511
2014/07/01,15:40:01,093,098,102,2.5,2.7,2.9,28.0,86.8,1004.0,0.00,0,0.0,////,0.0,0,0.0,////,29.3,0.0,12.3,3.511
2014/07/01,15:50:01,098,107,115,1.8,2.0,2.3,27.8,88.1,1004.0,0.00,0,0.0,////,0.0,0,0.0,////,28.7,0.0,12.3,3.511
2014/07/01,16:00:01,116,117,119,2.3,2.4,2.5,27.5,88.5,1004.0,0.00,0,0.0,////,0.0,0,0.0,////,28.4,0.0,12.3,3.514
2014/07/01,16:10:01,113,115,118,1.8,1.9,2.1,27.6,88.6,1003.8,0.00,0,0.0,////,0.0,0,0.0,////,28.4,0.0,12.3,3.511
2014/07/01,16:20:01,075,082,090,1.2,1.3,1.4,27.8,87.9,1003.6,0.00,0,0.0,////,0.0,0,0.0,////,28.7,0.0,12.3,3.511
2014/07/01,16:30:01,100,103,109,1.2,1.4,1.6,28.0,87.6,1003.6,0.00,0,0.0,////,0.0,0,0.0,////,29.1,0.0,12.3,3.511
2014/07/01,16:40:01,106,109,113,2.1,2.2,2.3,28.2,87.2,1003.4,0.00,0,0.0,////,0.0,0,0.0,////,29.1,0.0,12.3,3.513
2014/07/01,16:50:01,115,126,134,1.2,1.4,1.5,28.2,87.7,1003.3,0.00,0,0.0,////,0.0,0,0.0,////,29.1,0.0,12.3,3.511
2014/07/01,17:00:01,108,304,083,0.1,0.2,0.2,28.6,87.9,1003.3,0.00,0,0.0,////,0.0,0,0.0,////,29.6,0.0,12.3,3.513
2014/07/01,17:10:01,071,085,093,1.1,1.4,1.5,28.7,86.6,1003.3,0.00,0,0.0,////,0.0,0,0.0,////,29.8,0.0,12.3,3.513
2014/07/01,17:20:01,099,106,113,0.9,1.0,1.2,28.6,86.2,1003.2,0.00,0,0.0,////,0.0,0,0.0,////,29.6,0.0,12.3,3.511
2014/07/01,17:30:01,084,101,128,0.9,1.0,1.1,28.1,87.1,1003.3,0.00,0,0.0,////,0.0,0,0.0,////,28.9,0.0,12.3,3.511
2014/07/01,17:40:01,122,124,126,2.6,2.8,2.9,27.9,88.7,1003.4,0.00,0,0.0,////,0.0,0,0.0,////,28.2,0.0,12.3,3.511
2014/07/01,17:50:01,095,111,120,1.0,1.3,1.5,27.8,89.4,1003.5,0.00,0,0.0,////,0.0,0,0.0,////,27.7,0.0,12.3,3.513
2014/07/01,18:00:01,114,115,116,2.4,2.5,2.6,27.7,89.7,1003.3,0.00,0,0.0,////,0.0,0,0.0,////,27.7,0.0,12.3,3.511
2014/07/01,18:10:01,084,094,104,0.9,1.0,1.1,27.8,90.0,1003.3,0.00,0,0.0,////,0.0,0,0.0,////,27.7,0.0,12.3,3.511
2014/07/01,18:20:01,105,108,110,1.4,1.5,1.6,27.7,90.1,1003.2,0.00,0,0.0,////,0.0,0,0.0,////,27.5,0.0,12.3,3.513
2014/07/01,18:30:01,088,098,106,1.7,1.9,2.2,27.6,89.8,1003.4,0.00,0,0.0,////,0.0,0,0.0,////,27.5,0.0,12.3,3.511
2014/07/01,18:40:01,107,111,115,1.9,2.3,2.6,27.5,90.1,1003.3,0.00,0,0.0,////,0.0,0,0.0,////,27.0,0.0,12.3,3.513
2014/07/01,18:50:01,115,116,117,1.4,1.5,1.6,27.5,90.4,1003.4,0.00,0,0.0,////,0.0,0,0.0,////,27.0,0.0,12.3,3.514
2014/07/01,19:00:01,118,121,124,1.1,1.2,1.2,27.4,90.7,1003.4,0.00,0,0.0,////,0.0,0,0.0,////,26.8,0.0,12.3,3.511
2014/07/01,19:10:01,072,078,083,0.7,0.7,0.8,27.4,90.7,1003.4,0.00,0,0.0,////,0.0,0,0.0,////,26.8,0.0,12.3,3.513
2014/07/01,19:20:01,106,114,120,1.1,1.2,1.3,27.2,91.0,1003.4,0.00,0,0.0,////,0.0,0,0.0,////,26.3,0.0,12.3,3.515
2014/07/01,19:30:01,116,123,129,1.1,1.2,1.3,27.1,91.5,1003.4,0.00,0,0.0,////,0.0,0,0.0,////,26.2,0.0,12.3,3.511
2014/07/01,19:40:01,113,125,140,1.3,1.4,1.4,26.9,91.9,1003.4,0.00,0,0.0,////,0.0,0,0.0,////,26.0,0.0,12.2,3.511
2014/07/01,19:50:01,112,115,116,1.5,1.6,1.7,26.8,92.2,1003.4,0.00,0,0.0,////,0.0,0,0.0,////,25.8,0.0,12.3,3.513
2014/07/01,20:00:01,115,119,122,1.2,1.3,1.5,26.8,92.4,1003.5,0.00,0,0.0,////,0.0,0,0.0,////,25.6,0.0,12.3,3.513
2014/07/01,20:10:01,113,116,120,1.0,1.2,1.3,26.7,92.3,1003.4,0.00,0,0.0,////,0.0,0,0.0,////,25.6,0.0,12.3,3.511
2014/07/01,20:20:01,115,116,116,0.9,1.0,1.1,26.7,92.4,1003.4,0.00,0,0.0,////,0.0,0,0.0,////,25.6,0.0,12.2,3.513
2014/07/01,20:30:01,164,164,166,0.7,0.7,0.8,26.6,92.5,1003.3,0.00,0,0.0,////,0.0,0,0.0,////,25.5,0.0,12.3,3.513
2014/07/01,20:40:01,170,175,179,1.0,1.2,1.3,26.7,92.0,1003.2,0.00,0,0.0,////,0.0,0,0.0,////,25.8,0.0,12.3,3.511
2014/07/01,20:50:01,177,178,180,1.3,1.5,1.8,26.8,91.4,1003.2,0.00,0,0.0,////,0.0,0,0.0,////,25.8,0.0,12.3,3.511
2014/07/01,21:00:01,187,193,203,1.8,2.0,2.2,26.9,90.5,1003.3,0.00,0,0.0,////,0.0,0,0.0,////,26.0,0.0,12.3,3.513
2014/07/01,21:10:01,183,188,194,1.7,1.8,1.9,27.0,89.5,1003.3,0.00,0,0.0,////,0.0,0,0.0,////,26.0,0.0,12.3,3.513
2014/07/01,21:20:01,186,202,224,2.1,2.2,2.4,27.1,88.7,1003.3,0.00,0,0.0,////,0.0,0,0.0,////,26.0,0.0,12.3,3.513
2014/07/01,21:30:01,191,198,201,2.3,2.5,2.7,27.2,88.1,1003.4,0.00,0,0.0,////,0.0,0,0.0,////,26.2,0.0,12.3,3.511
2014/07/01,21:40:01,211,214,216,1.8,1.9,2.0,27.2,88.0,1003.6,0.00,0,0.0,////,0.0,0,0.0,////,26.2,0.0,12.3,3.513
2014/07/01,21:50:01,203,206,208,1.4,1.7,1.9,27.1,88.1,1003.7,0.00,0,0.0,////,0.0,0,0.0,////,26.2,0.0,12.3,3.513
2014/07/01,22:00:01,208,209,212,1.7,1.9,2.0,27.2,88.0,1003.6,0.00,0,0.0,////,0.0,0,0.0,////,26.0,0.0,12.3,3.511
2014/07/01,22:10:01,205,207,209,1.7,1.9,2.2,27.2,87.8,1003.7,0.00,0,0.0,////,0.0,0,0.0,////,26.0,0.0,12.3,3.513
2014/07/01,22:20:01,200,204,207,1.8,2.0,2.2,27.2,87.5,1003.8,0.00,0,0.0,////,0.0,0,0.0,////,26.0,0.0,12.3,3.514
2014/07/01,22:30:01,200,214,227,1.2,1.6,2.0,27.2,87.5,1003.8,0.00,0,0.0,////,0.0,0,0.0,////,26.2,0.0,12.3,3.513
2014/07/01,22:40:01,189,194,198,2.3,2.4,2.5,27.2,87.5,1003.6,0.00,0,0.0,////,0.0,0,0.0,////,26.0,0.0,12.3,3.511
2014/07/01,22:50:01,205,205,205,1.3,1.4,1.4,27.2,87.3,1003.6,0.00,0,0.0,////,0.0,0,0.0,////,26.2,0.0,12.3,3.513
2014/07/01,23:00:01,229,233,238,1.0,1.5,1.9,27.2,87.1,1003.6,0.00,0,0.0,////,0.0,0,0.0,////,26.2,0.0,12.3,3.511
2014/07/01,23:10:01,192,198,203,1.4,1.4,1.6,27.1,87.3,1003.4,0.00,0,0.0,////,0.0,0,0.0,////,26.0,0.0,12.3,3.513
2014/07/01,23:20:01,185,191,199,1.4,1.5,1.6,27.0,87.4,1003.4,0.00,0,0.0,////,0.0,0,0.0,////,26.0,0.0,12.3,3.514
2014/07/01,23:30:01,188,192,197,1.7,1.8,1.9,27.0,87.4,1003.3,0.00,0,0.0,////,0.0,0,0.0,////,25.8,0.0,12.3,3.513
2014/07/01,23:40:01,190,195,199,1.6,1.7,1.9,27.1,86.9,1003.4,0.00,0,0.0,////,0.0,0,0.0,////,26.0,0.0,12.3,3.513
2014/07/01,23:50:01,196,197,198,2.1,2.1,2.2,27.1,86.6,1003.4,0.00,0,0.0,////,0.0,0,0.0,////,26.0,0.0,12.3,3.513
2014/07/02,00:00:01,189,190,190,1.8,1.9,2.0,27.1,86.6,1003.3,0.00,0,0.0,////,0.0,0,0.0,////,25.8,0.0,12.3,3.513
2014/07/02,00:10:01,186,188,191,1.7,1.8,1.9,27.0,86.8,1003.2,0.00,0,0.0,////,0.0,0,0.0,////,26.2,0.0,12.3,3.513
2014/07/02,00:20:01,180,190,196,1.6,1.8,2.1,27.1,86.5,1003.1,0.00,0,0.0,////,0.0,0,0.0,////,26.0,0.0,12.3,3.514
2014/07/02,00:30:01,204,208,214,1.5,1.8,2.0,27.2,86.2,1003.0,0.00,0,0.0,////,0.0,0,0.0,////,26.0,0.0,12.3,3.513
2014/07/02,00:40:01,196,198,200,1.7,1.8,1.9,27.3,85.8,1002.9,0.00,0,0.0,////,0.0,0,0.0,////,26.2,0.0,12.3,3.513
2014/07/02,00:50:01,203,206,211,1.4,1.6,1.8,27.4,85.5,1002.9,0.00,0,0.0,////,0.0,0,0.0,////,26.5,0.0,12.3,3.513
2014/07/02,01:00:01,202,207,210,1.1,1.2,1.4,27.4,85.8,1002.9,0.00,0,0.0,////,0.0,0,0.0,////,26.3,0.0,12.3,3.513
2014/07/02,01:10:01,203,206,210,1.5,1.7,1.8,27.4,86.2,1002.9,0.00,0,0.0,////,0.0,0,0.0,////,26.2,0.0,12.3,3.513
2014/07/02,01:20:01,195,203,207,1.4,1.5,1.6,27.4,86.8,1002.8,0.00,0,0.0,////,0.0,0,0.0,////,26.3,0.0,12.4,3.511
2014/07/02,01:30:01,222,222,224,1.5,1.6,1.8,27.4,87.6,1002.7,0.00,0,0.0,////,0.0,0,0.0,////,26.2,0.0,12.3,3.513
2014/07/02,01:40:01,212,218,225,1.7,1.9,2.1,27.3,87.5,1002.8,0.00,0,0.0,////,0.0,0,0.0,////,26.2,0.0,12.3,3.513
2014/07/02,01:50:01,211,215,220,1.8,2.0,2.1,27.3,87.5,1002.8,0.00,0,0.0,////,0.0,0,0.0,////,26.2,0.0,12.3,3.511
2014/07/02,02:00:01,205,210,218,1.0,1.1,1.2,27.3,88.3,1002.7,0.00,0,0.0,////,0.0,0,0.0,////,26.2,0.0,12.3,3.513
2014/07/02,02:10:01,212,213,214,0.8,0.9,1.0,27.2,88.8,1002.8,0.00,0,0.0,////,0.0,0,0.0,////,26.0,0.0,12.3,3.511
2014/07/02,02:20:01,210,215,222,0.7,0.7,0.8,27.2,89.2,1002.8,0.00,0,0.0,////,0.0,0,0.0,////,26.0,0.0,12.3,3.513
2014/07/02,02:30:01,220,225,230,1.1,1.3,1.4,27.1,89.8,1002.9,0.00,0,0.0,////,0.0,0,0.0,////,25.8,0.0,12.3,3.513
2014/07/02,02:40:01,207,210,216,1.3,1.4,1.5,26.9,90.1,1002.8,0.00,0,0.0,////,0.0,0,0.0,////,25.8,0.0,12.3,3.513
2014/07/02,02:50:01,210,214,218,1.3,1.4,1.5,26.8,90.6,1002.7,0.00,0,0.0,////,0.0,0,0.0,////,25.5,0.0,12.3,3.513
2014/07/02,03:00:01,193,193,193,0.9,0.9,1.0,26.8,90.0,1002.7,0.00,0,0.0,////,0.0,0,0.0,////,25.6,0.0,12.3,3.511
2014/07/02,03:10:01,193,199,202,1.4,1.6,2.0,26.8,89.9,1002.6,0.00,0,0.0,////,0.0,0,0.0,////,25.6,0.0,12.3,3.513
2014/07/02,03:20:01,196,201,210,1.5,1.7,2.0,26.8,90.2,1002.6,0.00,0,0.0,////,0.0,0,0.0,////,25.6,0.0,12.3,3.511
2014/07/02,03:30:01,192,196,204,1.3,1.4,1.5,26.9,89.9,1002.5,0.00,0,0.0,////,0.0,0,0.0,////,25.8,0.0,12.3,3.513
2014/07/02,03:40:01,191,196,204,1.5,1.6,1.7,26.9,89.9,1002.6,0.00,0,0.0,////,0.0,0,0.0,////,25.8,0.0,12.3,3.513
2014/07/02,03:50:01,213,218,221,0.9,1.0,1.2,26.9,89.9,1002.6,0.00,0,0.0,////,0.0,0,0.0,////,25.6,0.0,12.3,3.513
2014/07/02,04:00:01,207,218,228,1.0,1.1,1.2,26.9,90.2,1002.7,0.00,0,0.0,////,0.0,0,0.0,////,25.8,0.0,12.3,3.513
2014/07/02,04:10:01,190,200,210,1.2,1.3,1.4,26.9,90.2,1002.7,0.00,0,0.0,////,0.0,0,0.0,////,25.6,0.0,12.3,3.513
2014/07/02,04:20:01,194,204,210,1.5,1.6,1.8,26.8,90.2,1002.6,0.00,0,0.0,////,0.0,0,0.0,////,25.6,0.0,12.3,3.511
2014/07/02,04:30:01,203,203,204,1.2,1.3,1.3,26.9,90.3,1002.7,0.00,0,0.0,////,0.0,0,0.0,////,25.8,0.0,12.3,3.511
2014/07/02,04:40:01,201,207,217,1.7,1.9,2.1,26.9,90.3,1002.7,0.00,0,0.0,////,0.0,0,0.0,////,25.6,0.0,12.3,3.511
2014/07/02,04:50:01,202,206,209,1.7,1.8,1.9,26.9,90.2,1002.8,0.00,0,0.0,////,0.0,0,0.0,////,26.0,0.0,12.3,3.511
2014/07/02,05:00:01,214,218,225,1.3,1.4,1.6,26.9,90.3,1002.8,0.00,0,0.0,////,0.0,0,0.0,////,26.0,0.0,12.3,3.513
2014/07/02,05:10:01,188,189,191,1.2,1.3,1.4,26.8,90.3,1002.7,0.00,0,0.0,////,0.0,0,0.0,////,25.8,0.0,12.3,3.513
2014/07/02,05:20:01,163,175,183,1.0,1.2,1.2,26.8,90.4,1002.7,0.00,0,0.0,////,0.0,0,0.0,////,25.5,0.0,12.3,3.513
2014/07/02,05:30:01,178,181,184,1.3,1.5,1.7,26.7,90.6,1002.8,0.00,0,0.0,////,0.0,0,0.0,////,25.6,0.0,12.3,3.513
2014/07/02,05:40:01,187,197,215,1.1,1.3,1.5,26.7,90.5,1002.8,0.00,0,0.0,////,0.0,0,0.0,////,25.6,0.0,12.3,3.511
2014/07/02,05:50:01,186,189,195,1.8,1.9,2.0,26.8,90.0,1002.8,0.00,0,0.0,////,0.0,0,0.0,////,26.2,0.0,12.3,3.511
2014/07/02,06:00:01,212,215,219,1.4,1.6,1.8,26.9,89.5,1002.8,0.00,0,0.0,////,0.0,0,0.0,////,26.2,0.0,12.3,3.511
2014/07/02,06:10:01,202,211,216,1.4,1.5,1.6,27.1,88.4,1002.8,0.00,0,0.0,////,0.0,0,0.0,////,26.5,0.0,12.3,3.513
2014/07/02,06:20:01,202,204,206,1.7,1.9,2.1,27.4,87.7,1002.9,0.00,0,0.0,////,0.0,0,0.0,////,27.4,0.0,12.3,3.511
2014/07/02,06:30:01,198,199,199,1.2,1.3,1.5,27.6,86.8,1002.9,0.00,0,0.0,////,0.0,0,0.0,////,28.2,0.0,12.3,3.511
2014/07/02,06:40:01,192,213,225,0.6,0.8,0.9,27.9,86.2,1003.0,0.00,0,0.0,////,0.0,0,0.0,////,28.7,0.0,12.3,3.511
2014/07/02,06:50:01,207,213,220,1.2,1.3,1.4,28.1,84.7,1003.0,0.00,0,0.0,////,0.0,0,0.0,////,29.3,0.0,12.3,3.513
2014/07/02,07:00:01,209,212,217,0.6,0.8,1.0,28.4,84.3,1003.0,0.00,0,0.0,////,0.0,0,0.0,////,29.8,0.0,12.3,3.511
2014/07/02,07:10:01,196,205,210,0.7,1.0,1.2,28.6,83.0,1003.0,0.00,0,0.0,////,0.0,0,0.0,////,30.5,0.0,12.3,3.511
2014/07/02,07:20:01,207,208,209,2.4,2.6,2.7,28.6,82.1,1003.0,0.00,0,0.0,////,0.0,0,0.0,////,30.6,0.0,12.3,3.511
2014/07/02,07:30:01,222,227,230,1.5,1.6,1.8,28.8,82.2,1003.0,0.00,0,0.0,////,0.0,0,0.0,////,30.8,0.0,12.3,3.511
2014/07/02,07:40:01,191,205,219,1.1,1.2,1.3,29.0,81.9,1003.1,0.00,0,0.0,////,0.0,0,0.0,////,31.2,0.0,12.3,3.511
2014/07/02,07:50:01,204,208,213,2.6,2.7,2.9,29.2,81.5,1003.1,0.00,0,0.0,////,0.0,0,0.0,////,31.7,0.0,12.3,3.511
2014/07/02,08:00:01,215,225,234,1.3,1.6,2.0,29.2,83.0,1003.1,0.00,0,0.0,////,0.0,0,0.0,////,31.5,0.0,12.3,3.511
2014/07/02,08:10:01,228,235,243,1.9,2.0,2.1,29.3,82.2,1003.1,0.00,0,0.0,////,0.0,0,0.0,////,31.8,0.0,12.3,3.511
2014/07/02,08:20:01,243,246,250,1.3,1.6,2.0,29.4,81.7,1003.2,0.00,0,0.0,////,0.0,0,0.0,////,32.2,0.0,12.3,3.511
2014/07/02,08:30:01,214,214,215,1.8,2.1,2.7,29.6,81.8,1003.1,0.00,0,0.0,////,0.0,0,0.0,////,32.5,0.0,12.3,3.513
2014/07/02,08:40:01,202,206,209,2.4,2.5,2.5,29.8,81.3,1003.0,0.00,0,0.0,////,0.0,0,0.0,////,32.9,0.0,12.3,3.511
2014/07/02,08:50:01,231,237,243,2.9,3.1,3.3,29.8,81.2,1003.1,0.00,0,0.0,////,0.0,0,0.0,////,33.1,0.0,12.3,3.511
2014/07/02,09:00:01,223,228,232,3.0,3.3,3.6,29.7,81.5,1002.9,0.00,0,0.0,////,0.0,0,0.0,////,32.7,0.0,12.2,3.514
2014/07/02,09:10:01,197,206,212,1.9,2.1,2.3,29.7,82.6,1002.9,0.00,0,0.0,////,0.0,0,0.0,////,32.9,0.0,12.3,3.511
2014/07/02,09:20:01,205,211,217,1.3,1.9,2.6,29.9,80.6,1002.9,0.00,0,0.0,////,0.0,0,0.0,////,33.6,0.0,12.3,3.514
2014/07/02,09:30:01,255,265,279,2.2,2.6,2.9,29.7,80.8,1002.9,0.00,0,0.0,////,0.0,0,0.0,////,33.2,0.0,12.3,3.511
2014/07/02,09:40:01,221,225,230,2.3,2.6,3.1,29.9,81.4,1002.8,0.00,0,0.0,////,0.0,0,0.0,////,33.4,0.0,12.3,3.510
2014/07/02,09:50:01,244,247,250,3.0,3.2,3.3,29.9,80.3,1002.7,0.00,0,0.0,////,0.0,0,0.0,////,33.6,0.0,12.3,3.511
2014/07/02,10:00:01,216,225,236,1.5,1.8,2.0,30.1,78.2,1002.7,0.00,0,0.0,////,0.0,0,0.0,////,33.7,0.0,12.3,3.513
2014/07/02,10:10:01,204,211,221,0.9,1.3,1.6,30.0,80.0,1002.6,0.00,0,0.0,////,0.0,0,0.0,////,33.9,0.0,12.3,3.511
2014/07/02,10:20:01,226,229,232,2.9,3.0,3.2,30.4,78.0,1002.5,0.00,0,0.0,////,0.0,0,0.0,////,34.8,0.0,12.3,3.511
2014/07/02,10:30:01,254,259,264,2.6,2.7,2.9,30.5,77.9,1002.5,0.00,0,0.0,////,0.0,0,0.0,////,35.1,0.0,12.3,3.511
2014/07/02,10:40:01,265,265,266,1.7,2.1,2.4,30.2,78.4,1002.5,0.00,0,0.0,////,0.0,0,0.0,////,35.0,0.0,12.3,3.511